Weather History for Moriarty, NM

Change the Weather History Date:

Monday, October 29, 2012

  Actual Average (KABQ) Record (KABQ)
Temperature  
Mean Temperature 48 °F 52 °F  
Max Temperature 72 °F 64 °F 80 °F (1915)
Min Temperature 25 °F 41 °F 21 °F (1915)
Degree Days  
Heating Degree Days 16 13  
Month to date heating degree days 215  
Since 1 July heating degree days 241  
Cooling Degree Days 0 0  
Month to date cooling degree days 7  
Year to date cooling degree days 1319  
Moisture  
Dew Point 15 °F    
Average Humidity 28    
Maximum Humidity 52    
Minimum Humidity 12    
Precipitation  
Precipitation 0.00 in 0.02 in 0.70 in (1892)
Month to date precipitation 0.97  
Year to date precipitation 8.33  
Snow  
Snow 0.00 in - - ()
Month to date snowfall  
Since 1 July snowfall  
Since 1 September snowfall  
Snow Depth -    
Sea Level Pressure  
Sea Level Pressure 30.24 in    
Wind  
Wind Speed 6 mph (NW)    
Max Wind Speed 23 mph    
Max Gust Speed 30 mph    
Visibility 10 miles    
Events      
T = Trace of Precipitation, MM = Missing Value Source: NWS Daily Summary

Daily Weather History Graph

Daily Weather History Graph

Search for Another Location

Airport:

Trip Planner

Search our weather history database for the weather conditions in past years. The results will help you decide how hot, cold, wet, or windy it might be!

Date:

Astronomy

Oct. 29, 2012 Rise Set
Actual Time 7:22 AM MDT 6:12 PM MDT
Civil Twilight 6:56 AM MDT 6:38 PM MDT
Nautical Twilight 6:26 AM MDT 7:08 PM MDT
Astronomical Twilight 5:57 AM MDT 7:37 PM MDT
Moon 6:07 PM MDT (10/29) 7:14 AM MDT (10/29)
Length of Visible Light 11h 41m
Length of Day
10h 49m
Full, 100% of the Moon is Illuminated
Oct 29
Full
Oct 29
Full
Nov 6
Last Quarter
Nov 13
New
Nov 20
First Quarter

Hourly Weather History & Observations

Time (MDT) Temp. Windchill Dew Point Humidity Pressure Visibility Wind Dir Wind Speed Gust Speed Precip Events Conditions
12:15 AM 41.5 °F 37.1 °F 14.4 °F 33% 30.23 in 10.0 mi ESE 6.9 mph - N/A   Clear
12:35 AM 45.5 °F - 14.9 °F 29% 30.23 in 10.0 mi Calm Calm - N/A   Clear
12:55 AM 45.7 °F 42.7 °F 14.9 °F 29% 30.24 in 10.0 mi South 5.8 mph - N/A   Clear
1:15 AM 42.1 °F 40.2 °F 14.4 °F 33% 30.24 in 10.0 mi SW 3.5 mph - N/A   Clear
1:35 AM 37.4 °F 32.8 °F 12.6 °F 36% 30.24 in 10.0 mi ESE 5.8 mph - N/A   Clear
1:55 AM 41.2 °F 39.2 °F 14.0 °F 33% 30.24 in 10.0 mi South 3.5 mph - N/A   Clear
2:15 AM 40.1 °F 36.9 °F 14.0 °F 35% 30.23 in 10.0 mi South 4.6 mph - N/A   Clear
2:35 AM 39.4 °F - 12.7 °F 34% 30.25 in 10.0 mi Calm Calm - N/A   Clear
2:55 AM 37.6 °F - 13.1 °F 37% 30.25 in 10.0 mi Calm Calm - N/A   Clear
3:35 AM 32.5 °F 27.1 °F 12.7 °F 44% 30.24 in 10.0 mi ESE 5.8 mph - N/A   Clear
3:55 AM 39.7 °F - 14.0 °F 35% 30.24 in 10.0 mi Calm Calm - N/A   Clear
4:15 AM 34.3 °F - 12.7 °F 41% 30.24 in 10.0 mi Calm Calm - N/A   Clear
4:35 AM 29.1 °F - 11.1 °F 47% 30.25 in 10.0 mi Calm Calm - N/A   Clear
4:55 AM 30.2 °F - 11.7 °F 46% 30.25 in 10.0 mi Calm Calm - N/A   Clear
5:15 AM 26.2 °F 22.1 °F 10.8 °F 52% 30.25 in 10.0 mi NNW 3.5 mph - N/A   Clear
5:35 AM 28.2 °F - 11.1 °F 49% 30.25 in 10.0 mi Calm Calm - N/A   Clear
5:55 AM 27.1 °F - 10.9 °F 51% 30.26 in 10.0 mi Calm Calm - N/A   Clear
6:15 AM 28.0 °F 24.2 °F 11.1 °F 49% 30.26 in 10.0 mi North 3.5 mph - N/A   Clear
6:35 AM 26.4 °F 20.9 °F 10.6 °F 51% 30.26 in 10.0 mi North 4.6 mph - N/A   Clear
6:55 AM 25.3 °F - 9.5 °F 51% 30.27 in 10.0 mi Calm Calm - N/A   Clear
7:15 AM 26.4 °F - 10.6 °F 51% 30.27 in 10.0 mi Calm Calm - N/A   Clear
7:35 AM 25.2 °F 20.9 °F 9.5 °F 52% 30.28 in 10.0 mi NNE 3.5 mph - N/A   Clear
7:55 AM 26.1 °F 20.5 °F 10.0 °F 51% 30.29 in 10.0 mi NE 4.6 mph - N/A   Clear
8:15 AM 31.6 °F 28.3 °F 12.4 °F 45% 30.29 in 10.0 mi NNE 3.5 mph - N/A   Clear
8:35 AM 37.8 °F - 13.8 °F 38% 30.29 in 10.0 mi Calm Calm - N/A   Clear
8:55 AM 43.9 °F 42.3 °F 15.6 °F 32% 30.30 in 10.0 mi NE 3.5 mph - N/A   Clear
9:15 AM 48.6 °F - 16.5 °F 28% 30.31 in 10.0 mi NNE 4.6 mph - N/A   Clear
9:35 AM 52.7 °F - 17.6 °F 25% 30.31 in 10.0 mi North 3.5 mph - N/A   Clear
9:55 AM 54.7 °F - 18.0 °F 24% 30.30 in 10.0 mi North 3.5 mph - N/A   Clear
10:15 AM 57.9 °F - 19.4 °F 22% 30.29 in 10.0 mi North 6.9 mph - N/A   Clear
10:35 AM 59.5 °F - 20.3 °F 22% 30.29 in 10.0 mi North 4.6 mph - N/A   Clear
10:55 AM 61.7 °F - 21.2 °F 21% 30.29 in 10.0 mi NNW 8.1 mph - N/A   Clear
11:15 AM 62.6 °F - 21.2 °F 20% 30.29 in 10.0 mi NNW 5.8 mph - N/A   Clear
11:55 AM 65.8 °F - 21.7 °F 19% 30.28 in 10.0 mi NW 5.8 mph - N/A   Clear
12:15 PM 67.6 °F - 21.2 °F 17% 30.27 in 10.0 mi NW 11.5 mph 18.4 mph N/A   Clear
12:55 PM 69.6 °F - 21.2 °F 16% 30.24 in 10.0 mi WNW 16.1 mph 26.5 mph N/A   Clear
1:15 PM 70.2 °F - 20.3 °F 15% 30.23 in 10.0 mi NW 17.3 mph 28.8 mph N/A   Clear
1:35 PM 71.6 °F - 19.8 °F 14% 30.22 in 10.0 mi WNW 16.1 mph 21.9 mph N/A   Clear
1:55 PM 72.3 °F - 18.9 °F 13% 30.21 in 10.0 mi NW 23.0 mph 28.8 mph N/A   Clear
2:15 PM 72.1 °F - 18.9 °F 13% 30.20 in 10.0 mi NW 21.9 mph 26.5 mph N/A   Clear
2:35 PM 72.5 °F - 18.3 °F 13% 30.20 in 10.0 mi NW 20.7 mph 27.6 mph N/A   Clear
2:55 PM 72.3 °F - 18.0 °F 13% 30.19 in 10.0 mi NNW 17.3 mph 27.6 mph N/A   Clear
3:15 PM 72.5 °F - 17.2 °F 12% 30.19 in 10.0 mi NW 19.6 mph 29.9 mph N/A   Clear
3:35 PM 72.3 °F - 16.7 °F 12% 30.19 in 10.0 mi WNW 19.6 mph 29.9 mph N/A   Clear
4:15 PM 71.6 °F - 15.8 °F 12% 30.19 in 10.0 mi West 17.3 mph 21.9 mph N/A   Clear
4:35 PM 70.9 °F - 15.8 °F 12% 30.19 in 10.0 mi WNW 15.0 mph 23.0 mph N/A   Clear
4:55 PM 70.0 °F - 15.4 °F 12% 30.19 in 10.0 mi West 15.0 mph 20.7 mph N/A   Clear
5:15 PM 68.9 °F - 15.3 °F 13% 30.18 in 10.0 mi West 16.1 mph - N/A   Clear
5:35 PM 67.8 °F - 14.9 °F 13% 30.19 in 10.0 mi West 15.0 mph 19.6 mph N/A   Clear
5:55 PM 65.8 °F - 14.9 °F 14% 30.19 in 10.0 mi West 12.7 mph - N/A   Clear
6:15 PM 62.8 °F - 14.5 °F 15% 30.19 in 10.0 mi West 12.7 mph - N/A   Clear
6:35 PM 60.3 °F - 14.0 °F 16% 30.20 in 10.0 mi West 9.2 mph - N/A   Clear
6:55 PM 59.0 °F - 13.1 °F 16% 30.20 in 10.0 mi West 9.2 mph - N/A   Clear
9:55 PM 46.9 °F - 11.8 °F 24% 30.22 in 10.0 mi WNW 8.1 mph - N/A   Clear
10:15 PM 47.5 °F - 11.8 °F 24% 30.23 in 10.0 mi West 3.5 mph - N/A   Clear
10:35 PM 44.8 °F 43.3 °F 11.3 °F 26% 30.23 in 10.0 mi WNW 3.5 mph - N/A   Clear
10:55 PM 48.2 °F - 12.2 °F 24% 30.23 in 10.0 mi West 4.6 mph - N/A   Clear
11:15 PM 45.3 °F 40.6 °F 11.3 °F 25% 30.23 in 10.0 mi West 9.2 mph - N/A   Clear
11:35 PM 46.2 °F 41.7 °F 11.3 °F 24% 30.23 in 10.0 mi West 9.2 mph - N/A   Clear
11:55 PM 45.0 °F 40.6 °F 11.7 °F 26% 30.23 in 10.0 mi North 8.1 mph - N/A   Clear